[[{"header":{"parameterUnit":"m.s-1","parameterCategory":1,"la1":30.2991,"la2":30.254,"lo1":-89.0895,"lo2":-89.0444,"dy":0.0017,"dx":0.0017,"nx":28,"ny":28,"refTime":"2024-08-09T15:00:00:Z","depth":0,"parameterNumber":2,"parameterNumberName":"U-component_of_WINDS"},"data":[0,0,0,0,0,0,0,0,0,0,0,0,0,0,0,0,0,0,0,0,0,0,0,0,0,0,0,0,0,0,0,0,0,0,0,0,0,0,0,0,0,0,0,0,0,0,0,0,0,0,0,0,0,0,0,0,0,0,1.3934,1.3936,0,1.4101,1.4103,1.4105,1.4141,1.4139,1.4138,1.4137,1.4312,1.4318,1.4324,0,0,0,0,0,0,0,0,0,0,0,0,0,1.365,1.3655,1.3934,1.3936,1.3938,1.4101,1.4103,1.4105,1.4141,1.4139,1.4138,1.4136,1.431,1.4317,1.4324,0,0,0,0,0,0,0,0,0,0,0,0,0,1.3791,1.3657,1.3934,1.3976,1.3981,1.41,1.4103,1.4106,1.4141,1.4139,1.4137,1.4136,1.4308,1.4317,1.4325,1.4416,0,0,1.4352,1.4356,0,0,0,0,0,0,0,0,1.3783,1.3801,1.3967,1.3973,1.3979,1.4098,1.4067,1.421,1.4142,1.408,1.4137,1.4135,1.4243,1.4257,1.4292,1.4425,1.4432,1.4353,1.4358,1.4362,1.4364,0,0,0,0,0,0,0,1.3773,1.3794,1.4,1.397,1.3977,1.3987,1.4005,1.4095,1.417,1.4086,1.4089,1.4108,1.4246,1.4284,1.4297,1.4435,1.4353,1.436,1.4366,1.4369,1.465,1.4652,0,0,0,0,0,0,1.3755,1.3786,1.3995,1.4005,1.3874,1.3994,1.4014,1.4062,1.4169,1.4184,1.4109,1.4109,1.427,1.4287,1.4303,1.4417,1.4362,1.437,1.4375,1.4648,1.4651,1.4653,0,0,0,0,0,0,1.3749,1.3774,1.3988,1.3897,1.3925,1.4001,1.4054,1.4066,1.4104,1.4187,1.4201,1.4134,1.4269,1.4291,1.4388,1.4423,1.4374,1.4382,1.4646,1.4649,1.4652,1.4644,0,0,0,0,0,0,1.3741,1.3771,1.3806,1.3897,1.3929,1.4069,1.4056,1.4071,1.4119,1.412,1.4214,1.4228,1.4269,1.4374,1.4396,1.4434,1.4389,1.4643,1.4647,1.4651,1.4642,1.4647,1.4651,0,0,0,0,0,1.3731,1.3798,1.3807,1.3832,1.3974,1.4071,1.4089,1.4134,1.4121,1.4157,1.421,1.4225,1.4416,1.4384,1.4409,1.445,1.4641,1.4646,1.4651,1.4639,1.4646,1.4651,0,0,0,0,0,0,1.371,1.3811,1.3822,1.3921,1.3987,1.4076,1.4123,1.414,1.4212,1.421,1.4265,1.4286,1.4379,1.4425,1.4388,1.4544,1.4528,1.4538,1.4511,1.4518,1.4522,1.4509,1.4396,0,0,0,0,0,1.3717,1.3786,1.3871,1.3949,1.3982,1.4047,1.4091,1.4119,1.4191,1.4219,1.428,1.4349,1.4425,1.4474,1.4548,1.4649,1.467,1.4689,1.4694,1.4698,1.4706,1.4762,1.4772,1.467,1.467,1.467,0,0,1.3732,1.3795,1.3836,1.3947,1.4001,1.4073,1.407,1.4146,1.4199,1.4231,1.4326,1.4373,1.4454,1.4553,1.4599,1.4594,1.4739,1.4704,1.4706,1.4713,1.4768,1.4778,1.4786,1.4673,1.4673,1.4672,0,0,1.3796,1.385,1.3922,1.3976,1.4058,1.4101,1.4118,1.4206,1.4237,1.4333,1.4358,1.4424,1.4553,1.461,1.4656,1.4741,1.4757,1.4764,1.4789,1.4843,1.4851,1.4859,1.4889,1.4899,1.4772,1.4772,1.4772,0,1.3804,1.3911,1.3957,1.4031,1.4079,1.411,1.4183,1.4235,1.4337,1.4371,1.4362,1.4525,1.4582,1.4694,1.4715,1.4751,1.4773,1.4753,1.4846,1.4854,1.4862,1.4891,1.4902,1.4772,1.4772,1.4772,1.4772,0,1.3918,1.3992,1.404,1.4136,1.419,1.4264,1.4322,1.4371,1.4395,1.4439,1.4536,1.4606,1.4694,1.4723,1.4749,1.484,1.4833,1.4835,1.482,1.4871,1.4899,1.4911,1.4772,1.4772,1.4772,1.4772,0,0,1.3973,1.4093,1.411,1.4154,1.4247,1.4306,1.4381,1.4467,1.4508,1.4578,1.4643,1.4751,1.4753,1.4805,1.4837,1.4885,1.4947,1.4881,1.4884,1.489,1.5052,1.5049,1.5061,1.4959,1.4961,1.4963,1.5044,0,1.4047,1.4181,1.4224,1.4336,1.4405,1.4435,1.4501,1.4566,1.4609,1.4675,1.4723,1.4799,1.4796,1.4827,1.4876,1.4929,1.498,1.4924,1.502,1.5023,1.4998,1.5076,1.5074,1.5148,1.5056,1.5058,1.5059,0,1.4152,1.4222,1.434,1.4424,1.4454,1.4512,1.4594,1.4656,1.4731,1.4759,1.4817,1.4845,1.4926,1.4906,1.5018,1.4979,1.5021,1.5053,1.5057,1.5068,1.5044,1.5088,1.5172,1.5183,1.5077,1.5076,1.5075,0,1.4179,1.4303,1.439,1.4427,1.4527,1.4567,1.4611,1.4684,1.4732,1.4804,1.4836,1.4917,1.4961,1.5024,1.5073,1.5054,1.5182,1.5166,1.5208,1.5206,1.5233,1.523,1.5324,1.5261,1.526,1.526,1.526,0,1.4257,1.4328,1.4403,1.4457,1.4537,1.4587,1.4666,1.4712,1.4776,1.484,1.4872,1.4931,1.4993,1.5061,1.51,1.5187,1.5208,1.5233,1.5243,1.523,1.5226,1.5258,1.5254,1.5263,1.5263,1.5262,1.5261,0,1.4301,1.4355,1.4451,1.4537,1.4561,1.4617,1.4691,1.4745,1.4789,1.4869,1.4891,1.4961,1.5042,1.5098,1.5203,1.5229,1.5323,1.5333,1.5298,1.5302,1.534,1.5336,1.5457,1.5476,1.54,1.5401,1.5401,0,1.4347,1.4402,1.4495,1.4539,1.4582,1.4653,1.4702,1.4754,1.4804,1.4893,1.4936,1.5019,1.5088,1.5216,1.5277,1.5358,1.5369,1.5406,1.5381,1.5366,1.5369,1.5364,1.537,1.5409,1.541,1.541,1.5411,0,1.4423,1.4446,1.4515,1.4594,1.4651,1.4716,1.4781,1.4815,1.4878,1.4933,1.5016,1.5069,1.5175,1.5258,1.5344,1.5391,1.5412,1.5418,1.5432,1.5419,1.5396,1.5408,1.5307,1.5415,1.5415,1.5414,1.5414,1.5414,1.4469,1.4519,1.4592,1.4668,1.4722,1.4781,1.4835,1.4886,1.4955,1.5045,1.5072,1.5157,1.5231,1.5348,1.5397,1.5465,1.5462,1.5482,1.5488,1.5491,1.5491,1.5385,1.5481,1.5481,1.5481,1.5481,1.5481,0,1.4546,1.4594,1.4663,1.4752,1.4812,1.4825,1.4898,1.4947,1.5022,1.5088,1.5155,1.525,1.533,1.5397,1.548,1.5522,1.5534,1.5542,1.5539,1.5549,1.5489,1.5468,1.5531,1.5531,1.5531,1.5531,1.5531,1.5531,1.4593,1.4678,1.471,1.4823,1.4871,1.4954,1.4994,1.505,1.5103,1.5207,1.5273,1.5316,1.5383,1.5471,1.5545,1.5563,1.5591,1.5597,1.5617,1.556,1.5554,1.5548,1.5529,1.5603,1.5604,1.5672,1.5673,1.5673]},{"header":{"parameterUnit":"m.s-1","parameterCategory":1,"la1":30.2991,"la2":30.254,"lo1":-89.0895,"lo2":-89.0444,"dy":0.0017,"dx":0.0017,"nx":28,"ny":28,"refTime":"2024-08-09T15:00:00:Z","depth":0,"parameterNumber":3,"parameterNumberName":"V-component_of_WINDS"},"data":[0,0,0,0,0,0,0,0,0,0,0,0,0,0,0,0,0,0,0,0,0,0,0,0,0,0,0,0,0,0,0,0,0,0,0,0,0,0,0,0,0,0,0,0,0,0,0,0,0,0,0,0,0,0,0,0,0,0,1.0937,1.0939,0,1.1045,1.1046,1.1047,1.0977,1.0974,1.0971,1.0967,1.1078,1.1084,1.109,0,0,0,0,0,0,0,0,0,0,0,0,0,1.0669,1.0674,1.0937,1.0939,1.094,1.1045,1.1046,1.1048,1.0978,1.0974,1.097,1.0966,1.1077,1.1084,1.1091,0,0,0,0,0,0,0,0,0,0,0,0,0,1.0782,1.0676,1.0937,1.0918,1.0917,1.1044,1.1046,1.1048,1.0978,1.0974,1.0969,1.0964,1.1074,1.1083,1.1092,1.1244,0,0,1.1119,1.1123,0,0,0,0,0,0,0,0,1.0776,1.0792,1.0919,1.0919,1.0919,1.0992,1.0992,1.1114,1.098,1.0955,1.0967,1.0962,1.1054,1.1064,1.1095,1.125,1.1254,1.112,1.1125,1.1129,1.1132,0,0,0,0,0,0,0,1.0768,1.0787,1.098,1.0921,1.0921,1.0903,1.0913,1.1015,1.1031,1.0957,1.0952,1.0966,1.1053,1.1087,1.1097,1.1256,1.112,1.1128,1.1133,1.1137,1.1535,1.154,0,0,0,0,0,0,1.0762,1.0781,1.0976,1.0983,1.0834,1.0911,1.0923,1.0974,1.1029,1.1033,1.097,1.0962,1.1074,1.1087,1.1101,1.1279,1.1129,1.1138,1.1143,1.153,1.1536,1.1542,0,0,0,0,0,0,1.0756,1.078,1.0972,1.0881,1.0904,1.0921,1.0978,1.0978,1.1012,1.1039,1.1041,1.1002,1.107,1.1088,1.1208,1.1282,1.1142,1.115,1.1524,1.1532,1.1539,1.1639,0,0,0,0,0,0,1.0749,1.0778,1.0838,1.0882,1.0909,1.1079,1.0983,1.0984,1.1028,1.1019,1.1069,1.1073,1.1068,1.1195,1.1217,1.1292,1.1157,1.1517,1.1527,1.1536,1.1629,1.1649,1.1666,0,0,0,0,0,1.074,1.0863,1.0841,1.0865,1.0983,1.1083,1.1098,1.1089,1.1034,1.1092,1.1109,1.1071,1.1271,1.1208,1.1232,1.1311,1.1512,1.1524,1.1536,1.1621,1.1645,1.1666,0,0,0,0,0,0,1.0828,1.0869,1.0845,1.0986,1.1031,1.1071,1.1145,1.1116,1.1179,1.1168,1.1154,1.1166,1.129,1.1313,1.1242,1.1458,1.1382,1.14,1.1439,1.1462,1.1481,1.1472,1.1164,0,0,0,0,0,1.0864,1.0942,1.0973,1.1095,1.1118,1.1128,1.1171,1.116,1.1206,1.1225,1.1251,1.1297,1.1369,1.1417,1.1486,1.1632,1.164,1.1698,1.1717,1.1732,1.1746,1.182,1.1844,1.158,1.158,1.158,0,0,1.0939,1.0971,1.1021,1.1113,1.1147,1.1226,1.1145,1.1234,1.1291,1.1239,1.1352,1.1372,1.1423,1.1555,1.1614,1.1577,1.182,1.1747,1.1759,1.1765,1.1834,1.1859,1.1881,1.1588,1.1587,1.1585,0,0,1.1115,1.1149,1.1251,1.1286,1.1337,1.1342,1.1366,1.1409,1.142,1.1533,1.1494,1.1562,1.1689,1.1725,1.176,1.1945,1.1911,1.1968,1.2064,1.2136,1.2157,1.2175,1.2237,1.226,1.1982,1.1982,1.1983,0,1.1202,1.132,1.1308,1.1398,1.1438,1.1393,1.1495,1.1529,1.1601,1.1628,1.1586,1.1739,1.1771,1.1908,1.1953,1.1984,1.2009,1.1961,1.2155,1.2173,1.219,1.2249,1.2273,1.1989,1.1988,1.1987,1.1987,0,1.1422,1.1504,1.1581,1.1648,1.1697,1.1794,1.1794,1.1845,1.1829,1.1837,1.195,1.1986,1.2058,1.209,1.2077,1.2225,1.2199,1.2157,1.208,1.2222,1.2276,1.2299,1.1998,1.1995,1.1993,1.1992,0,0,1.1659,1.1715,1.1743,1.177,1.1822,1.1885,1.1977,1.2047,1.2088,1.2139,1.2213,1.2319,1.2278,1.2317,1.2307,1.2371,1.2509,1.2319,1.232,1.235,1.2668,1.2698,1.2724,1.2488,1.2492,1.2495,1.2663,0,1.1834,1.1995,1.1984,1.2135,1.2208,1.2164,1.2244,1.2283,1.2293,1.2355,1.2366,1.2439,1.2382,1.2405,1.2466,1.2479,1.2572,1.2468,1.2554,1.2557,1.254,1.2754,1.2786,1.2943,1.2684,1.2688,1.2691,0,1.2062,1.2116,1.2273,1.2309,1.2339,1.2411,1.2471,1.2533,1.2575,1.2577,1.2619,1.2597,1.2687,1.2609,1.2732,1.2661,1.2695,1.2707,1.2713,1.2718,1.2631,1.2761,1.2993,1.3015,1.2725,1.2722,1.272,0,1.2213,1.2326,1.2433,1.2459,1.2505,1.2555,1.2576,1.2613,1.2654,1.2707,1.2732,1.2796,1.283,1.2878,1.2872,1.2817,1.2995,1.2918,1.2997,1.2997,1.3035,1.3032,1.3272,1.3063,1.3063,1.3062,1.3062,0,1.2409,1.2505,1.2501,1.2567,1.2672,1.2659,1.2764,1.2779,1.2812,1.2878,1.2845,1.2908,1.2898,1.296,1.2956,1.3055,1.3072,1.3075,1.3072,1.3076,1.3075,1.3096,1.3084,1.3069,1.3067,1.3066,1.3065,0,1.2595,1.2596,1.2709,1.2742,1.2752,1.2828,1.2855,1.2915,1.2921,1.3005,1.3024,1.3033,1.3104,1.3103,1.3186,1.3182,1.3303,1.3289,1.3288,1.3284,1.3361,1.3352,1.362,1.3653,1.3427,1.3429,1.3431,0,1.2718,1.2791,1.283,1.2871,1.2895,1.2963,1.3003,1.2992,1.3035,1.3085,1.3139,1.3207,1.326,1.3375,1.3388,1.3449,1.3435,1.3524,1.3444,1.3444,1.3431,1.3425,1.343,1.3539,1.3542,1.3544,1.3546,0,1.2935,1.2931,1.2991,1.3049,1.3098,1.3144,1.3186,1.3222,1.3214,1.3264,1.3335,1.3377,1.3458,1.3524,1.3582,1.3602,1.3572,1.3571,1.3592,1.3595,1.3589,1.3589,1.3327,1.3565,1.3563,1.3561,1.356,1.356,1.3091,1.3152,1.3187,1.3253,1.3283,1.3322,1.3379,1.339,1.345,1.3514,1.3504,1.3582,1.3618,1.3692,1.3717,1.3777,1.3745,1.3777,1.3784,1.3791,1.3797,1.3582,1.3788,1.3788,1.3787,1.3787,1.3786,0,1.3303,1.3322,1.3383,1.3441,1.3492,1.3459,1.3503,1.3547,1.3616,1.3652,1.3704,1.3784,1.3847,1.3863,1.3923,1.3968,1.3955,1.3983,1.3978,1.3982,1.3825,1.3799,1.3992,1.3992,1.3992,1.3992,1.3992,1.3992,1.3419,1.3518,1.3517,1.3629,1.3648,1.3724,1.3751,1.3786,1.3814,1.3903,1.3955,1.3965,1.3992,1.4053,1.4108,1.4111,1.4133,1.4166,1.4164,1.4015,1.3994,1.3975,1.395,1.4172,1.4173,1.4316,1.4317,1.4318]}]]